Regional Weather Roundup
Issued by NWS Newport/Morehead, NC

Current Version | Previous Version | Text Only | Print | Product List | Glossary Off
Versions: 1 2 3 4 5 6 7 8 9 10 11 12 13 14 15 16 17 18 19 20 21 22 23 24 25 26 27 28 29 30 31 32 33 34 35 36 37 38 39 40 41 42 43 44 45 46 47 48 49 50
000 ASUS42 KMHX 050312 RWRMHX WEATHER ROUNDUP FOR EASTERN NORTH CAROLINA NATIONAL WEATHER SERVICE NEWPORT/MOREHEAD CITY NC 1000 PM EST SUN DEC 04 2016 NOTE: "FAIR" INDICATES FEW OR NO CLOUDS BELOW 12,000 FEET WITH NO SIGNIFICANT WEATHER AND/OR OBSTRUCTIONS TO VISIBILITY NCZ015>017-031-032-045>047-102-103-050400- NORTH COAST CITY SKY/WX TMP DP RH WIND PRES REMARKS EDENTON DRIZZLE 47 43 84 CALM 30.16F ELIZABETH CITY LGT RAIN 46 41 82 E7 30.16F KITTY HAWK DRIZZLE 48 42 81 E3 30.15F MANTEO CLOUDY 47 43 85 E5 30.16F $$ NCZ045>047-081-094-103-104-050400- CENTRAL COAST CITY SKY/WX TMP DP RH WIND PRES REMARKS FRISCO LGT RAIN 49 44 83 NE6 30.15F $$ NCZ095-097-098-100-101-050400- SOUTHERN COAST CITY SKY/WX TMP DP RH WIND PRES REMARKS BEAUFORT LGT RAIN 50 49 96 E7 30.12F CEDAR ISLAND NOT AVBL JACKSONVILLE LGT RAIN 47 45 93 E8 30.11F PINEY ISLAND LGT RAIN N/A N/A N/A E10 30.12F WILMINGTON LGT RAIN 47 47 100 CALM 30.10F $$ NCZ011>013-027>030-043-044-078>080-089-090>093-098-050400- COASTAL PLAIN CITY SKY/WX TMP DP RH WIND PRES REMARKS AHOSKIE RAIN 42 41 96 CALM 30.15F CLINTON LGT RAIN 44 44 99 E3 30.11F ELIZABETHTOWN RAIN 44 44 100 CALM 30.11S GOLDSBORO CLOUDY 44 44 100 E7 30.10S GREENVILLE LGT RAIN 45 45 100 SE6 30.13F HAVELOCK LGT RAIN 47 44 90 E6 30.13F KENANSVILLE LGT RAIN 45 43 93 E5 30.13S FOG KINSTON CLOUDY 45 43 93 E3 30.13F NEW BERN RAIN 47 44 90 E7 30.13F RICHLANDS LGT RAIN 45 44 97 E5 30.12F ROCKY MOUNT LGT RAIN 43 43 100 CALM 30.12F FOG WASHINGTON LGT RAIN 44 42 94 E5 30.14F WHITEVILLE DRIZZLE 46 44 93 NE3 30.08F $$ AMZ130-135-150-152-154-156-158-170-250-252-270-ANZ085-086-088-633-658-670-050400- MARINE OBSERVATIONS STATION/POSITION TIME TEMP WIND PRES WAVE SWELL AIR SEA DIR/SP/G HT/PER HT/PER (UTC) (F) (DEG/KT/KT) (MB) (FT/S) (FT/S) CHESAPEAKE LIGHT NOT AVBL 64 E VA BEACH 0250 51 59 90/ 4/ 8 1021.3 3/ 7 3/ 7 DUCK 0248 49 55 120/ 8/ 10 1020.8 2 E DUCK NOT AVBL OREGON INLET 0242 50 55 50/ 5/ 7 1021.1 13E OREGON INLT NOT AVBL HATTERAS CG 0248 51 58 60/ 4/ 5 1020.5 DIAMOND BUOY 0250 60 74 120/ 4/ 8 1020.8 3/ 8 3/ 8 CAPE LOOKOUT 0300 57 100/ 14/ 17 1019.4 BEAUFORT LAB 0248 49 54 50/ 6/ 8 1018.6 30 SE NEW RVR IN 0208 61 75 90/ 16/ 21 1020.0 30 SE NEW RVR IN NOT AVBL 27 SE WRIGHTSVLE 0208 62 68 90/ 16/ 21 1018.9 5 SE WRIGHTSVLE 0208 55 63 90/ 17/ 27 1018.4 225 S CAPE HAT 0250 67 73 140/ 8/ 12 1021.7 4/ 8 3/ 8 41 SE CHARLESTON 0250 72 75 160/ 21/ 25 1016.9 4/ 4 2/ 8 $$

USA.gov is the U.S. government's official web portal to all federal, state and local government web resources and services.